Wetterdaten: aktuell Mittwoch, 19.12.2018 04:35
Datum Zeit Temp. A. Feuchte A. Luftdruck Regen Wind Taupunkt Windchill Windben
19.12.2018 04:35 0,8 C 85 % 1019,4 hPa 0,0 l/m 7,3 km/h (2 Bft) -1,4 C -0,1 C 14,5 km/h (3 Bft)
19.12.2018 04:30 0,8 C 85 % 1019,4 hPa 0,0 l/m 6,1 km/h (2 Bft) -1,4 C 0,8 C 11,3 km/h (2 Bft)
19.12.2018 04:25 0,8 C 85 % 1019,6 hPa 0,0 l/m 7,7 km/h (2 Bft) -1,4 C -0,5 C 14,5 km/h (3 Bft)
19.12.2018 04:20 0,9 C 85 % 1019,6 hPa 0,0 l/m 4,8 km/h (1 Bft) -1,3 C 0,9 C 12,9 km/h (3 Bft)
19.12.2018 04:15 0,8 C 85 % 1019,7 hPa 0,0 l/m 4,9 km/h (1 Bft) -1,4 C 0,8 C 12,9 km/h (3 Bft)
19.12.2018 04:10 0,9 C 85 % 1019,8 hPa 0,0 l/m 3,1 km/h (1 Bft) -1,3 C 0,9 C 9,7 km/h (2 Bft)
19.12.2018 04:05 0,9 C 85 % 1019,8 hPa 0,0 l/m 3,2 km/h (1 Bft) -1,3 C 0,9 C 6,4 km/h (2 Bft)
19.12.2018 04:00 0,9 C 85 % 1019,8 hPa 0,0 l/m 3,2 km/h (1 Bft) -1,3 C 0,9 C 8,0 km/h (2 Bft)
19.12.2018 03:55 0,9 C 85 % 1019,9 hPa 0,0 l/m 5,5 km/h (1 Bft) -1,3 C 0,9 C 11,3 km/h (2 Bft)
19.12.2018 03:50 0,9 C 85 % 1019,9 hPa 0,0 l/m 4,4 km/h (1 Bft) -1,3 C 0,9 C 9,7 km/h (2 Bft)
19.12.2018 03:45 0,9 C 85 % 1019,7 hPa 0,0 l/m 3,0 km/h (1 Bft) -1,3 C 0,9 C 8,0 km/h (2 Bft)
19.12.2018 03:40 0,9 C 85 % 1019,6 hPa 0,0 l/m 6,0 km/h (2 Bft) -1,3 C 0,9 C 14,5 km/h (3 Bft)
19.12.2018 03:35 0,9 C 85 % 1019,4 hPa 0,0 l/m 8,4 km/h (2 Bft) -1,3 C -1,1 C 16,1 km/h (3 Bft)
19.12.2018 03:30 0,9 C 85 % 1019,5 hPa 0,0 l/m 7,4 km/h (2 Bft) -1,3 C -0,1 C 14,5 km/h (3 Bft)
19.12.2018 03:25 0,9 C 85 % 1019,5 hPa 0,0 l/m 10,0 km/h (2 Bft) -1,3 C -2,5 C 14,5 km/h (3 Bft)
19.12.2018 03:20 0,8 C 85 % 1019,4 hPa 0,0 l/m 6,1 km/h (2 Bft) -1,4 C 0,8 C 16,1 km/h (3 Bft)
19.12.2018 03:15 0,8 C 85 % 1019,6 hPa 0,0 l/m 7,0 km/h (2 Bft) -1,4 C 0,2 C 14,5 km/h (3 Bft)
19.12.2018 03:10 0,8 C 85 % 1019,6 hPa 0,0 l/m 7,9 km/h (2 Bft) -1,4 C -0,7 C 16,1 km/h (3 Bft)
19.12.2018 03:05 0,7 C 85 % 1019,7 hPa 0,0 l/m 7,2 km/h (2 Bft) -1,5 C -0,1 C 22,5 km/h (4 Bft)
19.12.2018 03:00 0,6 C 86 % 1019,6 hPa 0,0 l/m 9,2 km/h (2 Bft) -1,5 C -2,1 C 22,5 km/h (4 Bft)
19.12.2018 02:55 0,4 C 86 % 1019,7 hPa 0,0 l/m 9,4 km/h (2 Bft) -1,7 C -2,5 C 17,7 km/h (3 Bft)
_ Min-Zeit 01:55 00:05 03:20 - 00:05 01:55 02:55 00:20
Minimum _ -0,3 C 85 % 1019,4 hPa - 3,0 km/h (1 Bft) -2,3 C -2,5 C 6,4 km/h (2 Bft)
_ Max-Zeit 03:25 02:00 00:05 00:00 03:25 03:25 03:40 03:00
Maximum _ 0,9 C 87 % 1021,6 hPa 0,0 l/m 10,0 km/h
O-SO (2 Bft)
-1,3 C 0,9 C 22,5 km/h
SO (4 Bft)
Durchschnitt _ 0,3 C 86 % 1020,1 hPa #0,0 l/m 5,6 km/h (1 Bft) -1,8 C -0,1 C 11,5 km/h (2 Bft)